Year,Month,Day,Hour,Minute,Value (Times are PST for barometer in hPa)
2021,10,24,00,00,995.05
2021,10,24,00,01,995.02
2021,10,24,00,02,995.02
2021,10,24,00,03,995.02
2021,10,24,00,04,995.02
2021,10,24,00,05,995.02
2021,10,24,00,06,995.02
2021,10,24,00,07,995.02
2021,10,24,00,08,995.02
2021,10,24,00,09,995.02
2021,10,24,00,10,995.02
2021,10,24,00,11,995.02
2021,10,24,00,12,995.02
2021,10,24,00,13,995.02
2021,10,24,00,14,995.02
2021,10,24,00,15,994.65
2021,10,24,00,16,994.65
2021,10,24,00,17,994.65
2021,10,24,00,18,994.65
2021,10,24,00,19,994.65
2021,10,24,00,20,994.65
2021,10,24,00,21,994.65
2021,10,24,00,22,994.65
2021,10,24,00,23,994.65
2021,10,24,00,24,994.65
2021,10,24,00,25,994.65
2021,10,24,00,26,994.65
2021,10,24,00,27,994.65
2021,10,24,00,28,994.65
2021,10,24,00,29,994.65
2021,10,24,00,30,994.35
2021,10,24,00,31,994.35
2021,10,24,00,32,994.35
2021,10,24,00,33,994.35
2021,10,24,00,34,994.35
2021,10,24,00,35,994.35
2021,10,24,00,36,994.35
2021,10,24,00,37,994.35
2021,10,24,00,38,994.35
2021,10,24,00,39,994.35
2021,10,24,00,40,994.35
2021,10,24,00,41,994.35
2021,10,24,00,42,994.35
2021,10,24,00,43,994.35
2021,10,24,00,44,994.35
2021,10,24,00,45,993.97
2021,10,24,00,46,993.97
2021,10,24,00,47,993.97
2021,10,24,00,48,993.97
2021,10,24,00,49,993.97
2021,10,24,00,50,993.97
2021,10,24,00,51,993.97
2021,10,24,00,52,993.97
2021,10,24,00,53,993.97
2021,10,24,00,54,993.97
2021,10,24,00,55,993.97
2021,10,24,00,56,993.97
2021,10,24,00,57,993.97
2021,10,24,00,58,993.97
2021,10,24,00,59,993.97
2021,10,24,01,00,993.74
2021,10,24,01,01,993.74
2021,10,24,01,02,993.74
2021,10,24,01,03,993.74
2021,10,24,01,04,993.74
2021,10,24,01,05,993.74
2021,10,24,01,06,993.74
2021,10,24,01,07,993.74
2021,10,24,01,08,993.74
2021,10,24,01,09,993.74
2021,10,24,01,10,993.74
2021,10,24,01,11,993.74
2021,10,24,01,12,993.74
2021,10,24,01,13,993.74
2021,10,24,01,14,993.74
2021,10,24,01,15,993.50
2021,10,24,01,16,993.50
2021,10,24,01,17,993.50
2021,10,24,01,18,993.50
2021,10,24,01,19,993.50
2021,10,24,01,20,993.50
2021,10,24,01,21,993.50
2021,10,24,01,22,993.50
2021,10,24,01,23,993.50
2021,10,24,01,24,993.50
2021,10,24,01,25,993.50
2021,10,24,01,26,993.50
2021,10,24,01,27,993.50
2021,10,24,01,28,993.50
2021,10,24,01,29,993.50
2021,10,24,01,30,993.40
2021,10,24,01,31,993.40
2021,10,24,01,32,993.40
2021,10,24,01,33,993.40
2021,10,24,01,34,993.40
2021,10,24,01,35,993.40
2021,10,24,01,36,993.40
2021,10,24,01,37,993.40
2021,10,24,01,38,993.40
2021,10,24,01,39,993.40
2021,10,24,01,40,993.40
2021,10,24,01,41,993.40
2021,10,24,01,42,993.40
2021,10,24,01,43,993.40
2021,10,24,01,44,993.40
2021,10,24,01,45,993.13
2021,10,24,01,46,993.13
2021,10,24,01,47,993.13
2021,10,24,01,48,993.13
2021,10,24,01,49,993.13
2021,10,24,01,50,993.13
2021,10,24,01,51,993.13
2021,10,24,01,52,993.13
2021,10,24,01,53,993.13
2021,10,24,01,54,993.13
2021,10,24,01,55,993.13
2021,10,24,01,56,993.13
2021,10,24,01,57,993.13
2021,10,24,01,58,993.13
2021,10,24,01,59,993.13
2021,10,24,02,00,992.77
2021,10,24,02,01,992.75
2021,10,24,02,02,992.75
2021,10,24,02,03,992.75
2021,10,24,02,04,992.75
2021,10,24,02,05,992.75
2021,10,24,02,06,992.75
2021,10,24,02,07,992.75
2021,10,24,02,08,992.75
2021,10,24,02,09,992.75
2021,10,24,02,10,992.75
2021,10,24,02,11,992.75
2021,10,24,02,12,992.75
2021,10,24,02,13,992.75
2021,10,24,02,14,992.75
2021,10,24,02,15,992.42
2021,10,24,02,16,992.42
2021,10,24,02,17,992.42
2021,10,24,02,18,992.42
2021,10,24,02,19,992.42
2021,10,24,02,20,992.42
2021,10,24,02,21,992.42
2021,10,24,02,22,992.42
2021,10,24,02,23,992.42
2021,10,24,02,24,992.42
2021,10,24,02,25,992.42
2021,10,24,02,26,992.42
2021,10,24,02,27,992.42
2021,10,24,02,28,992.42
2021,10,24,02,29,992.42
2021,10,24,02,30,992.26
2021,10,24,02,31,992.25
2021,10,24,02,32,992.25
2021,10,24,02,33,992.25
2021,10,24,02,34,992.25
2021,10,24,02,35,992.25
2021,10,24,02,36,992.25
2021,10,24,02,37,992.25
2021,10,24,02,38,992.25
2021,10,24,02,39,992.25
2021,10,24,02,40,992.25
2021,10,24,02,41,992.25
2021,10,24,02,42,992.25
2021,10,24,02,43,992.25
2021,10,24,02,44,992.25
2021,10,24,02,45,991.86
2021,10,24,02,46,991.84
2021,10,24,02,47,991.84
2021,10,24,02,48,991.84
2021,10,24,02,49,991.84
2021,10,24,02,50,991.84
2021,10,24,02,51,991.84
2021,10,24,02,52,991.84
2021,10,24,02,53,991.84
2021,10,24,02,54,991.84
2021,10,24,02,55,991.84
2021,10,24,02,56,991.84
2021,10,24,02,57,991.84
2021,10,24,02,58,991.84
2021,10,24,02,59,991.84
2021,10,24,03,00,991.37
2021,10,24,03,01,991.37
2021,10,24,03,02,991.37
2021,10,24,03,03,991.37
2021,10,24,03,04,991.37
2021,10,24,03,05,991.37
2021,10,24,03,06,991.37
2021,10,24,03,07,991.37
2021,10,24,03,08,991.37
2021,10,24,03,09,991.37
2021,10,24,03,10,991.37
2021,10,24,03,11,991.37
2021,10,24,03,12,991.37
2021,10,24,03,13,991.37
2021,10,24,03,14,991.37
2021,10,24,03,15,990.82
2021,10,24,03,16,990.82
2021,10,24,03,17,990.82
2021,10,24,03,18,990.82
2021,10,24,03,19,990.82
2021,10,24,03,20,990.82
2021,10,24,03,21,990.82
2021,10,24,03,22,990.82
2021,10,24,03,23,990.82
2021,10,24,03,24,990.82
2021,10,24,03,25,990.82
2021,10,24,03,26,990.82
2021,10,24,03,27,990.82
2021,10,24,03,28,990.82
2021,10,24,03,29,990.82
2021,10,24,03,30,990.35
2021,10,24,03,31,990.35
2021,10,24,03,32,990.35
2021,10,24,03,33,990.35
2021,10,24,03,34,990.35
2021,10,24,03,35,990.35
2021,10,24,03,36,990.35
2021,10,24,03,37,990.35
2021,10,24,03,38,990.35
2021,10,24,03,39,990.35
2021,10,24,03,40,990.35
2021,10,24,03,41,990.35
2021,10,24,03,42,990.35
2021,10,24,03,43,990.35
2021,10,24,03,44,990.35
2021,10,24,03,45,989.84
2021,10,24,03,46,989.84
2021,10,24,03,47,989.84
2021,10,24,03,48,989.84
2021,10,24,03,49,989.84
2021,10,24,03,50,989.84
2021,10,24,03,51,989.84
2021,10,24,03,52,989.84
2021,10,24,03,53,989.84
2021,10,24,03,54,989.84
2021,10,24,03,55,989.84
2021,10,24,03,56,989.84
2021,10,24,03,57,989.84
2021,10,24,03,58,989.84
2021,10,24,03,59,989.84
2021,10,24,04,00,989.54
2021,10,24,04,01,989.54
2021,10,24,04,02,989.54
2021,10,24,04,03,989.54
2021,10,24,04,04,989.54
2021,10,24,04,05,989.54
2021,10,24,04,06,989.54
2021,10,24,04,07,989.54
2021,10,24,04,08,989.54
2021,10,24,04,09,989.54
2021,10,24,04,10,989.54
2021,10,24,04,11,989.54
2021,10,24,04,12,989.54
2021,10,24,04,13,989.54
2021,10,24,04,14,989.54
2021,10,24,04,15,989.27
2021,10,24,04,16,989.27
2021,10,24,04,17,989.27
2021,10,24,04,18,989.27
2021,10,24,04,19,989.27
2021,10,24,04,20,989.27
2021,10,24,04,21,989.27
2021,10,24,04,22,989.27
2021,10,24,04,23,989.27
2021,10,24,04,24,989.27
2021,10,24,04,25,989.27
2021,10,24,04,26,989.27
2021,10,24,04,27,989.27
2021,10,24,04,28,989.27
2021,10,24,04,29,989.27
2021,10,24,04,30,988.72
2021,10,24,04,31,988.69
2021,10,24,04,32,988.69
2021,10,24,04,33,988.69
2021,10,24,04,34,988.69
2021,10,24,04,35,988.69
2021,10,24,04,36,988.69
2021,10,24,04,37,988.69
2021,10,24,04,38,988.69
2021,10,24,04,39,988.69
2021,10,24,04,40,988.69
2021,10,24,04,41,988.69
2021,10,24,04,42,988.69
2021,10,24,04,43,988.69
2021,10,24,04,44,988.69
2021,10,24,04,45,987.88
2021,10,24,04,46,987.88
2021,10,24,04,47,987.88
2021,10,24,04,48,987.88
2021,10,24,04,49,987.88
2021,10,24,04,50,987.88
2021,10,24,04,51,987.88
2021,10,24,04,52,987.88
2021,10,24,04,53,987.88
2021,10,24,04,54,987.88
2021,10,24,04,55,987.88
2021,10,24,04,56,987.88
2021,10,24,04,57,987.88
2021,10,24,04,58,987.88
2021,10,24,04,59,987.88
2021,10,24,05,00,988.07
2021,10,24,05,01,988.08
2021,10,24,05,02,988.08
2021,10,24,05,03,988.08
2021,10,24,05,04,988.08
2021,10,24,05,05,988.08
2021,10,24,05,06,988.08
2021,10,24,05,07,988.08
2021,10,24,05,08,988.08
2021,10,24,05,09,988.08
2021,10,24,05,10,988.08
2021,10,24,05,11,988.08
2021,10,24,05,12,988.08
2021,10,24,05,13,988.08
2021,10,24,05,14,988.08
2021,10,24,05,15,987.64
2021,10,24,05,16,987.64
2021,10,24,05,17,987.64
2021,10,24,05,18,987.64
2021,10,24,05,19,987.64
2021,10,24,05,20,987.64
2021,10,24,05,21,987.64
2021,10,24,05,22,987.64
2021,10,24,05,23,987.64
2021,10,24,05,24,987.64
2021,10,24,05,25,987.64
2021,10,24,05,26,987.64
2021,10,24,05,27,987.64
2021,10,24,05,28,987.64
2021,10,24,05,29,987.64
2021,10,24,05,30,986.69
2021,10,24,05,31,986.69
2021,10,24,05,32,986.69
2021,10,24,05,33,986.69
2021,10,24,05,34,986.69
2021,10,24,05,35,986.69
2021,10,24,05,36,986.69
2021,10,24,05,37,986.69
2021,10,24,05,38,986.69
2021,10,24,05,39,986.69
2021,10,24,05,40,986.69
2021,10,24,05,41,986.69
2021,10,24,05,42,986.69
2021,10,24,05,43,986.69
2021,10,24,05,44,986.69
2021,10,24,05,45,986.29
2021,10,24,05,46,986.29
2021,10,24,05,47,986.29
2021,10,24,05,48,986.29
2021,10,24,05,49,986.29
2021,10,24,05,50,986.29
2021,10,24,05,51,986.29
2021,10,24,05,52,986.29
2021,10,24,05,53,986.29
2021,10,24,05,54,986.29
2021,10,24,05,55,986.29
2021,10,24,05,56,986.29
2021,10,24,05,57,986.29
2021,10,24,05,58,986.29
2021,10,24,05,59,986.29
2021,10,24,06,00,985.57
2021,10,24,06,01,985.57
2021,10,24,06,02,985.57
2021,10,24,06,03,985.57
2021,10,24,06,04,985.57
2021,10,24,06,05,985.57
2021,10,24,06,06,985.57
2021,10,24,06,07,985.57
2021,10,24,06,08,985.57
2021,10,24,06,09,985.57
2021,10,24,06,10,985.57
2021,10,24,06,11,985.57
2021,10,24,06,12,985.57
2021,10,24,06,13,985.57
2021,10,24,06,14,985.57
2021,10,24,06,15,984.73
2021,10,24,06,16,984.73
2021,10,24,06,17,984.73
2021,10,24,06,18,984.73
2021,10,24,06,19,984.73
2021,10,24,06,20,984.73
2021,10,24,06,21,984.73
2021,10,24,06,22,984.73
2021,10,24,06,23,984.73
2021,10,24,06,24,984.73
2021,10,24,06,25,984.73
2021,10,24,06,26,984.73
2021,10,24,06,27,984.73
2021,10,24,06,28,984.73
2021,10,24,06,29,984.73
2021,10,24,06,30,984.05
2021,10,24,06,31,984.02
2021,10,24,06,32,984.02
2021,10,24,06,33,984.02
2021,10,24,06,34,984.02
2021,10,24,06,35,984.02
2021,10,24,06,36,984.02
2021,10,24,06,37,984.02
2021,10,24,06,38,984.02
2021,10,24,06,39,984.02
2021,10,24,06,40,984.02
2021,10,24,06,41,984.02
2021,10,24,06,42,984.02
2021,10,24,06,43,984.02
2021,10,24,06,44,984.02
2021,10,24,06,45,983.79
2021,10,24,06,46,983.78
2021,10,24,06,47,983.78
2021,10,24,06,48,983.78
2021,10,24,06,49,983.78
2021,10,24,06,50,983.78
2021,10,24,06,51,983.78
2021,10,24,06,52,983.78
2021,10,24,06,53,983.78
2021,10,24,06,54,983.78
2021,10,24,06,55,983.78
2021,10,24,06,56,983.78
2021,10,24,06,57,983.78
2021,10,24,06,58,983.78
2021,10,24,06,59,983.78
2021,10,24,07,00,983.37
2021,10,24,07,01,983.37
2021,10,24,07,02,983.37
2021,10,24,07,03,983.37
2021,10,24,07,04,983.37
2021,10,24,07,05,983.37
2021,10,24,07,06,983.37
2021,10,24,07,07,983.37
2021,10,24,07,08,983.37
2021,10,24,07,09,983.37
2021,10,24,07,10,983.37
2021,10,24,07,11,983.37
2021,10,24,07,12,983.37
2021,10,24,07,13,983.37
2021,10,24,07,14,983.37
2021,10,24,07,15,982.99
2021,10,24,07,16,982.97
2021,10,24,07,17,982.97
2021,10,24,07,18,982.97
2021,10,24,07,19,982.97
2021,10,24,07,20,982.97
2021,10,24,07,21,982.97
2021,10,24,07,22,982.97
2021,10,24,07,23,982.97
2021,10,24,07,24,982.97
2021,10,24,07,25,982.97
2021,10,24,07,26,982.97
2021,10,24,07,27,982.97
2021,10,24,07,28,982.97
2021,10,24,07,29,982.97
2021,10,24,07,30,982.55
2021,10,24,07,31,982.53
2021,10,24,07,32,982.53
2021,10,24,07,33,982.53
2021,10,24,07,34,982.53
2021,10,24,07,35,982.53
2021,10,24,07,36,982.53
2021,10,24,07,37,982.53
2021,10,24,07,38,982.53
2021,10,24,07,39,982.53
2021,10,24,07,40,982.53
2021,10,24,07,41,982.53
2021,10,24,07,42,982.53
2021,10,24,07,43,982.53
2021,10,24,07,44,982.53
2021,10,24,07,45,981.92
2021,10,24,07,46,981.92
2021,10,24,07,47,981.92
2021,10,24,07,48,981.92
2021,10,24,07,49,981.92
2021,10,24,07,50,981.92
2021,10,24,07,51,981.92
2021,10,24,07,52,981.92
2021,10,24,07,53,981.92
2021,10,24,07,54,981.92
2021,10,24,07,55,981.92
2021,10,24,07,56,981.92
2021,10,24,07,57,981.92
2021,10,24,07,58,981.92
2021,10,24,07,59,981.92
2021,10,24,08,00,981.83
2021,10,24,08,01,981.82
2021,10,24,08,02,981.82
2021,10,24,08,03,981.82
2021,10,24,08,04,981.82
2021,10,24,08,05,981.82
2021,10,24,08,06,981.82
2021,10,24,08,07,981.82
2021,10,24,08,08,981.82
2021,10,24,08,09,981.82
2021,10,24,08,10,981.82
2021,10,24,08,11,981.82
2021,10,24,08,12,981.82
2021,10,24,08,13,981.82
2021,10,24,08,14,981.82
2021,10,24,08,15,981.43
2021,10,24,08,16,981.41
2021,10,24,08,17,981.41
2021,10,24,08,18,981.41
2021,10,24,08,19,981.41
2021,10,24,08,20,981.41
2021,10,24,08,21,981.41
2021,10,24,08,22,981.41
2021,10,24,08,23,981.41
2021,10,24,08,24,981.41
2021,10,24,08,25,981.41
2021,10,24,08,26,981.41
2021,10,24,08,27,981.41
2021,10,24,08,28,981.41
2021,10,24,08,29,981.41
2021,10,24,08,30,981.24
2021,10,24,08,31,981.24
2021,10,24,08,32,981.24
2021,10,24,08,33,981.24
2021,10,24,08,34,981.24
2021,10,24,08,35,981.24
2021,10,24,08,36,981.24
2021,10,24,08,37,981.24
2021,10,24,08,38,981.24
2021,10,24,08,39,981.24
2021,10,24,08,40,981.24
2021,10,24,08,41,981.24
2021,10,24,08,42,981.24
2021,10,24,08,43,981.24
2021,10,24,08,44,981.24
2021,10,24,08,45,981.14
2021,10,24,08,46,981.14
2021,10,24,08,47,981.14
2021,10,24,08,48,981.14
2021,10,24,08,49,981.14
2021,10,24,08,50,981.14
2021,10,24,08,51,981.14
2021,10,24,08,52,981.14
2021,10,24,08,53,981.14
2021,10,24,08,54,981.14
2021,10,24,08,55,981.14
2021,10,24,08,56,981.14
2021,10,24,08,57,981.14
2021,10,24,08,58,981.14
2021,10,24,08,59,981.14
2021,10,24,09,00,980.84
2021,10,24,09,01,980.83
2021,10,24,09,02,980.83
2021,10,24,09,03,980.83
2021,10,24,09,04,980.83
2021,10,24,09,05,980.83
2021,10,24,09,06,980.83
2021,10,24,09,07,980.83
2021,10,24,09,08,980.83
2021,10,24,09,09,980.83
2021,10,24,09,10,980.83
2021,10,24,09,11,980.83
2021,10,24,09,12,980.83
2021,10,24,09,13,980.83
2021,10,24,09,14,980.83
2021,10,24,09,15,980.87
2021,10,24,09,16,980.87
2021,10,24,09,17,980.87
2021,10,24,09,18,980.87
2021,10,24,09,19,980.87
2021,10,24,09,20,980.87
2021,10,24,09,21,980.87
2021,10,24,09,22,980.87
2021,10,24,09,23,980.87
2021,10,24,09,24,980.87
2021,10,24,09,25,980.87
2021,10,24,09,26,980.87
2021,10,24,09,27,980.87
2021,10,24,09,28,980.87
2021,10,24,09,29,980.87
2021,10,24,09,30,980.83
2021,10,24,09,31,980.83
2021,10,24,09,32,980.83
2021,10,24,09,33,980.83
2021,10,24,09,34,980.83
2021,10,24,09,35,980.83
2021,10,24,09,36,980.83
2021,10,24,09,37,980.83
2021,10,24,09,38,980.83
2021,10,24,09,39,980.83
2021,10,24,09,40,980.83
2021,10,24,09,41,980.83
2021,10,24,09,42,980.83
2021,10,24,09,43,980.83
2021,10,24,09,44,980.83
2021,10,24,09,45,980.73
2021,10,24,09,46,980.73
2021,10,24,09,47,980.73
2021,10,24,09,48,980.73
2021,10,24,09,49,980.73
2021,10,24,09,50,980.73
2021,10,24,09,51,980.73
2021,10,24,09,52,980.73
2021,10,24,09,53,980.73
2021,10,24,09,54,980.73
2021,10,24,09,55,980.73
2021,10,24,09,56,980.73
2021,10,24,09,57,980.73
2021,10,24,09,58,980.73
2021,10,24,09,59,980.73
2021,10,24,10,00,979.66
2021,10,24,10,01,979.61
2021,10,24,10,02,979.61
2021,10,24,10,03,979.61
2021,10,24,10,04,979.61
2021,10,24,10,05,979.61
2021,10,24,10,06,979.61
2021,10,24,10,07,979.61
2021,10,24,10,08,979.61
2021,10,24,10,09,979.61
2021,10,24,10,10,979.61
2021,10,24,10,11,979.61
2021,10,24,10,12,979.61
2021,10,24,10,13,979.61
2021,10,24,10,14,979.61
2021,10,24,10,15,978.97
2021,10,24,10,16,978.94
2021,10,24,10,17,978.94
2021,10,24,10,18,978.94
2021,10,24,10,19,978.94
2021,10,24,10,20,978.94
2021,10,24,10,21,978.94
2021,10,24,10,22,978.94
2021,10,24,10,23,978.94
2021,10,24,10,24,978.94
2021,10,24,10,25,978.94
2021,10,24,10,26,978.94
2021,10,24,10,27,978.94
2021,10,24,10,28,978.94
2021,10,24,10,29,978.94
2021,10,24,10,30,979.24
2021,10,24,10,31,979.24
2021,10,24,10,32,979.24
2021,10,24,10,33,979.24
2021,10,24,10,34,979.24
2021,10,24,10,35,979.24
2021,10,24,10,36,979.24
2021,10,24,10,37,979.24
2021,10,24,10,38,979.24
2021,10,24,10,39,979.24
2021,10,24,10,40,979.24
2021,10,24,10,41,979.24
2021,10,24,10,42,979.24
2021,10,24,10,43,979.24
2021,10,24,10,44,979.24
2021,10,24,10,45,978.80
2021,10,24,10,46,978.80
2021,10,24,10,47,978.80
2021,10,24,10,48,978.80
2021,10,24,10,49,978.80
2021,10,24,10,50,978.80
2021,10,24,10,51,978.80
2021,10,24,10,52,978.80
2021,10,24,10,53,978.80
2021,10,24,10,54,978.80
2021,10,24,10,55,978.80
2021,10,24,10,56,978.80
2021,10,24,10,57,978.80
2021,10,24,10,58,978.80
2021,10,24,10,59,978.80
2021,10,24,11,00,979.09
2021,10,24,11,01,979.11
2021,10,24,11,02,979.11
2021,10,24,11,03,979.11
2021,10,24,11,04,979.11
2021,10,24,11,05,979.11
2021,10,24,11,06,979.11
2021,10,24,11,07,979.11
2021,10,24,11,08,979.11
2021,10,24,11,09,979.11
2021,10,24,11,10,979.11
2021,10,24,11,11,979.11
2021,10,24,11,12,979.11
2021,10,24,11,13,979.11
2021,10,24,11,14,979.11
2021,10,24,11,15,978.69
2021,10,24,11,16,978.67
2021,10,24,11,17,978.67
2021,10,24,11,18,978.67
2021,10,24,11,19,978.67
2021,10,24,11,20,978.67
2021,10,24,11,21,978.67
2021,10,24,11,22,978.67
2021,10,24,11,23,978.67
2021,10,24,11,24,978.67
2021,10,24,11,25,978.67
2021,10,24,11,26,978.67
2021,10,24,11,27,978.67
2021,10,24,11,28,978.67
2021,10,24,11,29,978.67
2021,10,24,11,30,978.47
2021,10,24,11,31,978.46
2021,10,24,11,32,978.46
2021,10,24,11,33,978.46
2021,10,24,11,34,978.46
2021,10,24,11,35,978.46
2021,10,24,11,36,978.46
2021,10,24,11,37,978.46
2021,10,24,11,38,978.46
2021,10,24,11,39,978.46
2021,10,24,11,40,978.46
2021,10,24,11,41,978.46
2021,10,24,11,42,978.46
2021,10,24,11,43,978.46
2021,10,24,11,44,978.46
2021,10,24,11,45,978.30
2021,10,24,11,46,978.29
2021,10,24,11,47,978.29
2021,10,24,11,48,978.29
2021,10,24,11,49,978.29
2021,10,24,11,50,978.29
2021,10,24,11,51,978.29
2021,10,24,11,52,978.29
2021,10,24,11,53,978.29
2021,10,24,11,54,978.29
2021,10,24,11,55,978.29
2021,10,24,11,56,978.29
2021,10,24,11,57,978.29
2021,10,24,11,58,978.29
2021,10,24,11,59,978.29
2021,10,24,12,00,978.45
2021,10,24,12,01,978.46
2021,10,24,12,02,978.46
2021,10,24,12,03,978.46
2021,10,24,12,04,978.46
2021,10,24,12,05,978.46
2021,10,24,12,06,978.46
2021,10,24,12,07,978.46
2021,10,24,12,08,978.46
2021,10,24,12,09,978.46
2021,10,24,12,10,978.46
2021,10,24,12,11,978.46
2021,10,24,12,12,978.46
2021,10,24,12,13,978.46
2021,10,24,12,14,978.46
2021,10,24,12,15,977.95
2021,10,24,12,16,977.92
2021,10,24,12,17,977.92
2021,10,24,12,18,977.92
2021,10,24,12,19,977.92
2021,10,24,12,20,977.92
2021,10,24,12,21,977.92
2021,10,24,12,22,977.92
2021,10,24,12,23,977.92
2021,10,24,12,24,977.92
2021,10,24,12,25,977.92
2021,10,24,12,26,977.92
2021,10,24,12,27,977.92
2021,10,24,12,28,977.92
2021,10,24,12,29,977.92
2021,10,24,12,30,978.02
2021,10,24,12,31,978.02
2021,10,24,12,32,978.02
2021,10,24,12,33,978.02
2021,10,24,12,34,978.02
2021,10,24,12,35,978.02
2021,10,24,12,36,978.02
2021,10,24,12,37,978.02
2021,10,24,12,38,978.02
2021,10,24,12,39,978.02
2021,10,24,12,40,978.02
2021,10,24,12,41,978.02
2021,10,24,12,42,978.02
2021,10,24,12,43,978.02
2021,10,24,12,44,978.02
2021,10,24,12,45,978.12
2021,10,24,12,46,978.12
2021,10,24,12,47,978.12
2021,10,24,12,48,978.12
2021,10,24,12,49,978.12
2021,10,24,12,50,978.12
2021,10,24,12,51,978.12
2021,10,24,12,52,978.12
2021,10,24,12,53,978.12
2021,10,24,12,54,978.12
2021,10,24,12,55,978.12
2021,10,24,12,56,978.12
2021,10,24,12,57,978.12
2021,10,24,12,58,978.12
2021,10,24,12,59,978.12
2021,10,24,13,00,978.67
2021,10,24,13,01,978.70
2021,10,24,13,02,978.70
2021,10,24,13,03,978.70
2021,10,24,13,04,978.70
2021,10,24,13,05,978.70
2021,10,24,13,06,978.70
2021,10,24,13,07,978.70
2021,10,24,13,08,978.70
2021,10,24,13,09,978.70
2021,10,24,13,10,978.70
2021,10,24,13,11,978.70
2021,10,24,13,12,978.70
2021,10,24,13,13,978.70
2021,10,24,13,14,978.70
2021,10,24,13,15,978.70
2021,10,24,13,16,978.70
2021,10,24,13,17,978.70
2021,10,24,13,18,978.70
2021,10,24,13,19,978.70
2021,10,24,13,20,978.70
2021,10,24,13,21,978.70
2021,10,24,13,22,978.70
2021,10,24,13,23,978.70
2021,10,24,13,24,978.70
2021,10,24,13,25,978.70
2021,10,24,13,26,978.70
2021,10,24,13,27,978.70
2021,10,24,13,28,978.70
2021,10,24,13,29,978.70
2021,10,24,13,30,978.15
2021,10,24,13,31,978.12
2021,10,24,13,32,978.12
2021,10,24,13,33,978.12
2021,10,24,13,34,978.12
2021,10,24,13,35,978.12
2021,10,24,13,36,978.12
2021,10,24,13,37,978.12
2021,10,24,13,38,978.12
2021,10,24,13,39,978.12
2021,10,24,13,40,978.12
2021,10,24,13,41,978.12
2021,10,24,13,42,978.12
2021,10,24,13,43,978.12
2021,10,24,13,44,978.12
2021,10,24,13,45,977.67
2021,10,24,13,46,977.65
2021,10,24,13,47,977.65
2021,10,24,13,48,977.65
2021,10,24,13,49,977.65
2021,10,24,13,50,977.65
2021,10,24,13,51,977.65
2021,10,24,13,52,977.65
2021,10,24,13,53,977.65
2021,10,24,13,54,977.65
2021,10,24,13,55,977.65
2021,10,24,13,56,977.65
2021,10,24,13,57,977.65
2021,10,24,13,58,977.65
2021,10,24,13,59,977.65
2021,10,24,14,00,979.68
2021,10,24,14,01,979.78
2021,10,24,14,02,979.78
2021,10,24,14,03,979.78
2021,10,24,14,04,979.78
2021,10,24,14,05,979.78
2021,10,24,14,06,979.78
2021,10,24,14,07,979.78
2021,10,24,14,08,979.78
2021,10,24,14,09,979.78
2021,10,24,14,10,979.78
2021,10,24,14,11,979.78
2021,10,24,14,12,979.78
2021,10,24,14,13,979.78
2021,10,24,14,14,979.78
2021,10,24,14,15,979.34
2021,10,24,14,16,979.34
2021,10,24,14,17,979.34
2021,10,24,14,18,979.34
2021,10,24,14,19,979.34
2021,10,24,14,20,979.34
2021,10,24,14,21,979.34
2021,10,24,14,22,979.34
2021,10,24,14,23,979.34
2021,10,24,14,24,979.34
2021,10,24,14,25,979.34
2021,10,24,14,26,979.34
2021,10,24,14,27,979.34
2021,10,24,14,28,979.34
2021,10,24,14,29,979.34
2021,10,24,14,30,979.31
2021,10,24,14,31,979.31
2021,10,24,14,32,979.31
2021,10,24,14,33,979.31
2021,10,24,14,34,979.31
2021,10,24,14,35,979.31
2021,10,24,14,36,979.31
2021,10,24,14,37,979.31
2021,10,24,14,38,979.31
2021,10,24,14,39,979.31
2021,10,24,14,40,979.31
2021,10,24,14,41,979.31
2021,10,24,14,42,979.31
2021,10,24,14,43,979.31
2021,10,24,14,44,979.31
2021,10,24,14,45,978.90
2021,10,24,14,46,978.90
2021,10,24,14,47,978.90
2021,10,24,14,48,978.90
2021,10,24,14,49,978.90
2021,10,24,14,50,978.90
2021,10,24,14,51,978.90
2021,10,24,14,52,978.90
2021,10,24,14,53,978.90
2021,10,24,14,54,978.90
2021,10,24,14,55,978.90
2021,10,24,14,56,978.90
2021,10,24,14,57,978.90
2021,10,24,14,58,978.90
2021,10,24,14,59,978.90
2021,10,24,15,00,979.28
2021,10,24,15,01,979.28
2021,10,24,15,02,979.28
2021,10,24,15,03,979.28
2021,10,24,15,04,979.28
2021,10,24,15,05,979.28
2021,10,24,15,06,979.28
2021,10,24,15,07,979.28
2021,10,24,15,08,979.28
2021,10,24,15,09,979.28
2021,10,24,15,10,979.28
2021,10,24,15,11,979.28
2021,10,24,15,12,979.28
2021,10,24,15,13,979.28
2021,10,24,15,14,979.28
2021,10,24,15,15,979.31
2021,10,24,15,16,979.31
2021,10,24,15,17,979.31
2021,10,24,15,18,979.31
2021,10,24,15,19,979.31
2021,10,24,15,20,979.31
2021,10,24,15,21,979.31
2021,10,24,15,22,979.31
2021,10,24,15,23,979.31
2021,10,24,15,24,979.31
2021,10,24,15,25,979.31
2021,10,24,15,26,979.31
2021,10,24,15,27,979.31
2021,10,24,15,28,979.31
2021,10,24,15,29,979.31
2021,10,24,15,30,980.26
2021,10,24,15,31,980.26
2021,10,24,15,32,980.26
2021,10,24,15,33,980.26
2021,10,24,15,34,980.26
2021,10,24,15,35,980.26
2021,10,24,15,36,980.26
2021,10,24,15,37,980.26
2021,10,24,15,38,980.26
2021,10,24,15,39,980.26
2021,10,24,15,40,980.26
2021,10,24,15,41,980.26
2021,10,24,15,42,980.26
2021,10,24,15,43,980.26
2021,10,24,15,44,980.26
2021,10,24,15,45,980.16
2021,10,24,15,46,980.16
2021,10,24,15,47,980.16
2021,10,24,15,48,980.16
2021,10,24,15,49,980.16
2021,10,24,15,50,980.16
2021,10,24,15,51,980.16
2021,10,24,15,52,980.16
2021,10,24,15,53,980.16
2021,10,24,15,54,980.16
2021,10,24,15,55,980.16
2021,10,24,15,56,980.16
2021,10,24,15,57,980.16
2021,10,24,15,58,980.16
2021,10,24,15,59,980.16
2021,10,24,16,00,979.90
2021,10,24,16,01,979.89
2021,10,24,16,02,979.89
2021,10,24,16,03,979.89
2021,10,24,16,04,979.89
2021,10,24,16,05,979.89
2021,10,24,16,06,979.89
2021,10,24,16,07,979.89
2021,10,24,16,08,979.89
2021,10,24,16,09,979.89
2021,10,24,16,10,979.89
2021,10,24,16,11,979.89
2021,10,24,16,12,979.89
2021,10,24,16,13,979.89
2021,10,24,16,14,979.89
2021,10,24,16,15,980.29
2021,10,24,16,16,980.29
2021,10,24,16,17,980.29
2021,10,24,16,18,980.29
2021,10,24,16,19,980.29
2021,10,24,16,20,980.29
2021,10,24,16,21,980.29
2021,10,24,16,22,980.29
2021,10,24,16,23,980.29
2021,10,24,16,24,980.29
2021,10,24,16,25,980.29
2021,10,24,16,26,980.29
2021,10,24,16,27,980.29
2021,10,24,16,28,980.29
2021,10,24,16,29,980.29
2021,10,24,16,30,979.97
2021,10,24,16,31,979.95
2021,10,24,16,32,979.95
2021,10,24,16,33,979.95
2021,10,24,16,34,979.95
2021,10,24,16,35,979.95
2021,10,24,16,36,979.95